Location: Gloden
(48.4833°N, 15.3167°E)
Time: 02:56:31
(UTC+00:00)

Daily predictions for brighter satellites

Satellite Brightness Start Highest point End
(mag) Time Altitude Azimuth Time Altitude Azimuth Time Altitude Azimuth
ATLAS CENTAUR R/B 4.3 03:06:22 13° NE 03:06:22 13° NE 03:07:18 10° ENE
FALCON 9 R/B 4.1 03:10:14 30° S 03:11:52 32° SSE 03:26:05 10° ESE
BREEZE-M DEB (TANK) 4.1 03:22:47 68° S 03:23:05 69° SSE 03:27:06 10° ENE
Cosmos 1634 Rocket 4.5 03:21:25 10° S 03:27:26 57° E 03:33:28 10° NNE
GEOS 3 Rocket 4.3 03:23:19 10° ESE 03:28:00 50° NE 03:28:00 50° NE
Cosmos 1452 Rocket 4.1 03:36:16 50° NE 03:36:16 50° NE 03:40:13 10° NNE
Cosmos 2195 Rocket 4.4 03:35:27 60° N 03:36:44 85° E 03:43:03 10° S
Cosmos 1850 Rocket 4.5 03:38:26 54° SSE 03:38:26 54° SSE 03:42:31 10° SSE
Cosmos 2263 Rocket 2.5 03:42:26 55° NNE 03:42:26 55° NNE 03:46:45 10° NNE
Cosmos 1092 Rocket 4.2 03:51:23 51° SSW 03:51:23 51° SSW 03:56:00 10° S
Meteor 1-19 Rocket 4.3 03:49:57 40° N 03:52:00 75° ENE 03:57:40 10° SSE
Meteor 1-20 Rocket 4.1 04:03:03 54° SW 04:04:13 68° WNW 04:10:02 10° N
COSMO-SKYMED 1 2.5 04:01:23 10° SSE 04:05:35 82° ESE 04:05:35 82° ESE
Cosmos 2297 Rocket 4.4 04:10:26 11° N 04:10:26 11° N 04:10:51 10° N
Cosmos 1844 Rocket 3.8 04:06:57 10° S 04:12:10 43° ESE 04:17:24 10° NE
Cosmos 2227 Rocket 4.4 04:15:37 11° N 04:15:37 11° N 04:16:11 10° N
Cosmos 405 4.2 04:13:38 32° NE 04:14:37 40° ENE 04:17:57 10° SE
Cosmos 1733 Rocket 4.1 04:11:32 10° SSE 04:15:39 45° E 04:19:48 10° NNE
Cosmos 2221 Rocket 3.4 04:21:51 69° WNW 04:22:07 71° W 04:26:30 10° S
COSMOS 2406 4.5 04:18:09 15° NNW 04:22:28 37° NE 04:27:41 10° ESE
Cosmos 1428 Rocket 4.5 04:17:58 18° NNW 04:22:45 60° W 04:28:55 10° S
CZ-4B R/B 4.2 04:18:57 10° NNE 04:24:26 50° E 04:29:55 10° S
Cosmos 44 3.0 04:23:58 52° SW 04:25:02 79° NW 04:29:33 10° NE
Geosat 3.9 04:21:11 10° SSE 04:26:13 81° WSW 04:28:14 37° NW
Cosmos 2266 Rocket 4.4 04:22:22 10° N 04:28:34 62° ENE 04:34:35 10° SSE
Cosmos 1110 Rocket 4.0 04:25:24 10° SSW 04:30:35 83° ESE 04:35:47 10° NNE
Okean O Rocket 2.2 04:29:02 10° NNE 04:33:24 58° E 04:37:45 10° S
ATLAS 5 CENTAUR R/B 3.8 04:33:48 16° NNW 04:34:25 16° N 04:37:42 10° NNE
ALOS 2.2 04:30:28 10° NNE 04:35:10 87° ESE 04:39:51 10° SSW
Cosmos 371 Rocket 3.2 04:31:45 10° SSW 04:36:36 87° WNW 04:41:32 10° NNE
Meteor 1-13 Rocket 4.2 04:33:18 10° N 04:38:53 86° ENE 04:44:30 10° SSE
Cosmos 2180 Rocket 4.4 04:33:02 10° S 04:39:11 87° W 04:45:25 10° N
USA 234 3.2 04:36:50 10° NE 04:43:24 89° NW 04:49:29 12° WSW
Cosmos 2026 Rocket 4.4 04:40:42 25° NW 04:43:29 38° W 04:49:11 10° SSW
Cosmos 1674 Rocket 3.6 04:39:56 12° N 04:43:56 79° E 04:48:14 10° SSE
ATLAS CENTAUR R/B 1.5 04:42:35 33° NNW 04:44:21 67° NE 04:48:16 10° SE
Cosmos 2082 Rocket 4.1 04:40:41 10° N 04:45:10 24° NE 04:49:38 10° E
PSLV R/B 4.1 04:42:47 10° N 04:46:44 45° WNW 04:50:40 10° SW
SJ-12 3.9 04:43:06 10° N 04:47:10 57° WNW 04:51:10 10° SSW
Cosmos 1486 Rocket 4.4 04:44:16 12° NNW 04:49:05 64° ENE 04:54:18 10° SSE
SKYMED 2 4.2 04:50:05 10° SSW 04:53:59 32° W 04:54:14 32° W
Cosmos 1536 3.1 04:53:32 10° S 04:57:34 71° E 05:01:38 10° NNE
Cosmos 2279 Rocket 4.1 04:52:17 10° SSW 04:58:19 53° WNW 05:04:26 10° N
Cosmos 1378 Rocket 3.6 04:55:47 10° N 05:00:14 85° ENE 05:04:42 10° S
Cosmos 1500 3.1 04:59:22 10° SSW 05:03:09 61° WNW 05:06:57 10° N
IRIDIUM 103 4.5 04:58:45 10° N 05:04:00 76° E 05:09:13 10° S
PAYLOAD B 4.2 04:58:46 10° N 05:04:15 65° WNW 05:09:44 10° SSW
Orbus 7S? 2.2 05:03:52 33° WSW 05:04:49 87° NNW 05:07:31 10° NE
USA 81 4.2 05:00:28 10° N 05:05:46 75° E 05:11:03 10° S
GEOS 3 Rocket 4.2 05:01:38 10° S 05:06:22 39° WSW 05:09:07 22° WNW
Okean 3 4.2 05:06:41 26° WNW 05:07:42 30° W 05:11:23 10° SSW
Cosmos 2292 Rocket 4.2 05:01:20 10° N 05:07:59 88° ENE 05:12:52 10° S
Meteor 1-11 Rocket 3.7 05:05:25 10° SSW 05:11:13 79° WNW 05:17:11 10° N
BREEZE-M DEB (TANK) 3.6 05:16:42 12° SW 05:17:22 14° SSW 05:18:54 10° S
Meteor 1-5 Rocket 4.3 05:11:32 10° SSW 05:17:23 60° WNW 05:23:06 10° N
Meteor 2-4 Rocket 4.3 05:16:04 10° NNW 05:20:53 33° W 05:25:37 10° SSW
Cosmos 44 Rocket 3.4 05:16:42 10° SSW 05:21:34 77° SE 05:26:23 10° NE
IRIDIUM 106 4.3 05:17:04 10° N 05:22:18 77° W 05:27:30 10° S
SL-24 R/B 4.4 05:19:01 10° S 05:23:06 44° W 05:27:13 10° NNW
Cosmos 1302 Rocket 4.0 05:20:11 10° SSW 05:25:28 72° WNW 05:30:47 10° NNE
Cosmos 2278 Rocket 3.7 05:20:28 10° S 05:25:43 40° ESE 05:30:59 10° NE
Cosmos 2263 Rocket 3.5 05:24:11 17° WNW 05:25:58 19° NW 05:29:56 10° N
Cosmos 1066 Rocket 4.1 05:20:26 10° NNW 05:26:01 86° W 05:31:26 10° S
Cosmos 968 Rocket 3.5 05:22:43 10° NNW 05:27:55 83° ENE 05:33:02 10° SSE
Cosmos 304 Rocket 3.7 05:25:33 10° SW 05:30:17 63° WNW 05:35:04 10° NNE
CZ-2C R/B 4.0 05:26:21 10° SSE 05:31:05 77° ENE 05:35:53 10° NNW
Helios 1A Rocket 3.3 05:27:41 10° N 05:31:27 39° WNW 05:35:12 10° SW
Cosmos 1503 Rocket 4.1 05:27:33 10° NNW 05:32:55 83° ENE 05:38:16 10° SSE
Okean 2 4.2 05:29:50 10° N 05:33:51 52° ENE 05:37:50 10° SSE
Cosmos 1908 Rocket 3.5 05:29:47 10° SSW 05:34:14 71° W 05:38:42 10° N
Cosmos 1441 Rocket 3.7 05:30:47 10° S 05:34:42 66° E 05:38:37 10° NNE
AQUARIUS 4.2 05:31:06 10° NNE 05:35:37 85° E 05:40:07 10° SSW
FENGYUN 3A 4.2 05:31:23 10° N 05:36:13 35° WNW 05:41:02 10° SW
NOAA 6 4.4 05:32:02 10° N 05:36:52 42° WNW 05:41:40 10° SW
NOSS 3-2 (A) 3.4 05:31:01 10° SW 05:36:52 75° NW 05:43:37 10° NE
Cosmos 2098 Rocket 4.3 05:34:45 10° N 05:38:56 48° ENE 05:44:11 10° SSE
SAR-Lupe-2 4.0 05:35:45 10° SSE 05:39:18 64° ENE 05:42:53 10° N
Nadezhda 2 Rocket 4.4 05:33:40 10° N 05:39:49 83° W 05:45:55 10° S
Cosmos 389 Rocket 3.3 05:36:38 10° N 05:40:04 50° ENE 05:43:26 10° SSE
Cosmos 1378 4.2 05:36:33 10° N 05:40:12 47° ENE 05:43:50 10° SSE
Cosmos 1833 Rocket 3.0 05:36:45 10° NNW 05:42:25 70° ENE 05:48:03 10° SE
COSMO-SKYMED 1 4.5 05:41:05 10° WSW 05:42:30 11° W 05:42:47 11° W
Cosmos 1354 Rocket 4.0 05:40:55 10° NNW 05:46:16 85° WSW 05:51:35 10° SSE
Cosmos 1666 2.9 05:43:21 10° SSW 05:47:00 46° WNW 05:50:41 10° N
CENTAUR R/B 2.9 05:42:01 10° SSW 05:48:02 74° SE 05:55:08 10° NE
USA 238 DEB 3.7 05:42:53 10° WSW 05:49:32 62° NW 05:56:28 10° NE
USA 238 3.7 05:43:00 10° WSW 05:49:38 62° NW 05:56:34 10° NE
Cosmos 839 Rocket 4.4 05:44:35 10° NW 05:51:08 88° NE 05:59:05 10° SE
Cosmos 1975 3.7 05:48:07 10° S 05:52:00 53° E 05:55:54 10° NNE
Cosmos 1733 Rocket 4.3 05:50:28 10° WSW 05:53:42 20° WNW 05:56:57 10° NNW
EP 3 3.7 05:53:11 10° SW 05:55:15 76° SE 05:57:21 10° NE
Cosmos 1844 Rocket 3.2 05:51:00 10° WSW 05:56:08 37° NW 06:01:19 10° NNE
IRS-1C Rocket 4.1 05:53:55 10° N 05:59:07 63° WNW 06:04:19 10° SSW
SMAP 3.2 05:55:18 10° N 05:59:52 54° WNW 06:04:23 10° SSW
ADEOS Rocket 3.3 05:54:09 10° S 06:00:42 52° W 06:06:38 10° NNW
Cosmos 1992 Rocket 4.0 05:56:24 10° SSW 06:01:36 87° WNW 06:06:52 10° NNE
CZ-4B R/B 4.0 05:59:55 10° N 06:04:46 31° WNW 06:09:38 10° WSW
Radarsat Rocket 4.4 06:00:13 10° N 06:06:14 50° WNW 06:12:57 10° SW
Cosmos 1844 4.2 06:00:51 10° WSW 06:06:15 40° NW 06:11:40 10° NNE
COSMOS 2406 3.7 06:01:30 10° NW 06:06:53 44° WSW 06:12:11 10° S
SL-23 DEB 3.8 06:04:23 10° W 06:07:29 52° N 06:11:28 10° ENE
Okean O Rocket 3.0 06:06:18 10° NNW 06:09:22 19° WNW 06:12:25 10° WSW
Aureole 3 Rocket 4.2 06:03:04 10° S 06:09:43 66° E 06:14:26 10° NNE
